Location: Unspecified
(42.2710°N, 0.0000°E)
Time: 01:47:40
(UTC+00:00)

FENGYUN 1C DEB - Visible Passes

Search period start: 04 April 2026 00:00
Search period end: 14 April 2026 00:00
Orbit: 824 x 899 km, 99.5° (Epoch: 24 March)

Date Brightness Start Highest point End Pass type
(mag) Time Alt. Az. Time Alt. Az. Time Alt. Az.
4 Apr ? 01:18:23 10° NW 01:18:23 10° NW 01:18:28 10° NNW visible
4 Apr ? 23:27:14 17° NNE 23:27:14 17° NNE 23:28:43 10° N visible
5 Apr ? 01:09:28 12° NNW 01:09:28 12° NNW 01:09:55 10° NNW visible
5 Apr ? 23:18:18 16° NNE 23:18:18 16° NNE 23:19:49 10° N visible
6 Apr ? 01:00:32 14° NNW 01:00:32 14° NNW 01:01:20 10° NNW visible
6 Apr ? 23:09:23 15° NNE 23:09:23 15° NNE 23:10:51 10° NNE visible
7 Apr ? 00:51:36 16° NNW 00:51:36 16° NNW 00:52:42 10° NNW visible
7 Apr ? 23:00:27 14° NNE 23:00:27 14° NNE 23:01:49 10° NNE visible
8 Apr ? 00:42:40 18° NNW 00:42:40 18° NNW 00:44:03 10° NNW visible
8 Apr ? 22:51:31 13° NE 22:51:31 13° NE 22:52:41 10° NNE visible
9 Apr ? 00:33:44 21° NNW 00:33:44 21° NNW 00:35:23 10° NNW visible
9 Apr ? 22:42:35 11° NE 22:42:35 11° NE 22:43:22 10° NNE visible
10 Apr ? 00:24:48 22° NNW 00:24:48 22° NNW 00:26:40 10° NNW visible
11 Apr ? 00:15:52 24° N 00:15:52 24° N 00:17:56 10° N visible
12 Apr ? 00:06:56 25° N 00:06:56 25° N 00:09:11 10° N visible
12 Apr ? 23:57:59 26° N 23:57:59 26° N 00:00:24 10° N visible
13 Apr ? 01:40:12 11° NW 01:40:12 11° NW 01:40:29 10° NW visible
13 Apr ? 23:49:03 26° NNE 23:49:03 26° NNE 23:51:35 10° N visible
